Location: Unspecified
(0.0000°N, 0.0000°E)
Time: 16:15:58
(UTC+00:00)

Courier 1B Rocket - Pass Details

Date: 20 November 2019
Orbit: 920 x 1202 km, 28.2° (Epoch: 12 December)

Event Time Altitude Azimuth Distance (km) Brightness Sun altitude
Rises 23:56:56 0° 283° (WNW) 4,065 - -70.2°
Reaches altitude 10° 00:00:03 10° 275° (W) 3,079 - -70.1°
Maximum altitude 00:07:01 38° 210° (SSW) 1,646 - -69.7°
Drops below altitude 10° 00:13:38 10° 143° (SE) 2,913 - -69.2°
Sets 00:16:31 0° 135° (SE) 3,824 - -69.0°
